When you browse on this site, cookies collect data to enhance your experience and personalize the content and advertising you see.
Visit our Privacy Policy to learn more. By continuing to use the site, you agree to this use of cookies and data.
  • In Hungary
  • List of Countries
  • For 7 days
  • Water Temperature
  • Satellite Maps
  • Weather Map
  • News
  • Weather Widgets
  • user-avatar
    Login

    Hourly Weather Moscow

    Today, 20 July, Saturday

    Time Temperature Precipitation Wind Pressure Humidity
    00:00 +11°C° 0 mm 1 mps 686 mmHg 49%
    01:00 +10°C° 0 mm 1 mps 686 mmHg 51%
    02:00 +10°C° 0 mm 1 mps 686 mmHg 53%
    03:00 +10°C° 0 mm 1 mps 686 mmHg 55%
    04:00 +9°C° 0 mm 1 mps 687 mmHg 56%
    05:00 +11°C° 0 mm 1 mps 687 mmHg 53%
    06:00 +13°C° 0 mm 1 mps 688 mmHg 49%
    07:00 +15°C° 0 mm 1 mps 688 mmHg 45%
    08:00 +18°C° 0 mm 1 mps 688 mmHg 40%
    09:00 +21°C° 0 mm 1 mps 689 mmHg 36%
    10:00 +23°C° 0 mm 1 mps 689 mmHg 31%
    11:00 +24°C° 0 mm 1 mps 689 mmHg 29%
    12:00 +24°C° 0 mm 2 mps 689 mmHg 26%
    13:00 +25°C° 0 mm 2 mps 689 mmHg 24%
    14:00 +25°C° 0 mm 2 mps 689 mmHg 24%
    15:00 +25°C° 0 mm 3 mps 689 mmHg 24%
    16:00 +25°C° 0 mm 3 mps 689 mmHg 24%
    17:00 +22°C° 0 mm 3 mps 688 mmHg 30%
    18:00 +21°C° 0 mm 2 mps 688 mmHg 36%
    19:00 +19°C° 0 mm 2 mps 688 mmHg 42%
    20:00 +17°C° 0 mm 2 mps 688 mmHg 45%
    21:00 +16°C° 0 mm 2 mps 688 mmHg 48%
    22:00 +15°C° 0 mm 2 mps 688 mmHg 51%
    23:00 +14°C° 0 mm 2 mps 687 mmHg 53%

    Tomorrow, 21 July, Sunday

    Time Temperature Precipitation Wind Pressure Humidity
    00:00 +13°C° 0 mm 2 mps 687 mmHg 56%
    01:00 +12°C° 0 mm 2 mps 687 mmHg 58%
    02:00 +12°C° 0 mm 2 mps 687 mmHg 60%
    03:00 +10°C° 0 mm 2 mps 687 mmHg 62%
    04:00 +10°C° 0 mm 2 mps 687 mmHg 63%
    05:00 +13°C° 0 mm 2 mps 687 mmHg 58%
    06:00 +14°C° 0 mm 2 mps 688 mmHg 54%
    07:00 +16°C° 0 mm 3 mps 688 mmHg 49%
    08:00 +19°C° 0 mm 3 mps 688 mmHg 43%
    09:00 +21°C° 0 mm 3 mps 688 mmHg 38%
    10:00 +24°C° 0 mm 3 mps 689 mmHg 32%
    11:00 +26°C° 0 mm 2 mps 689 mmHg 29%
    12:00 +27°C° 0 mm 2 mps 689 mmHg 25%
    13:00 +29°C° 0 mm 2 mps 688 mmHg 21%
    14:00 +29°C° 0 mm 1 mps 688 mmHg 21%
    15:00 +30°C° 0 mm 1 mps 688 mmHg 20%
    16:00 +30°C° 0 mm 1 mps 688 mmHg 19%
    17:00 +28°C° 0 mm 1 mps 687 mmHg 24%
    18:00 +26°C° 0 mm 1 mps 687 mmHg 29%
    19:00 +24°C° 0 mm 1 mps 686 mmHg 34%
    20:00 +23°C° 0 mm 1 mps 686 mmHg 35%
    21:00 +22°C° 0 mm 1 mps 686 mmHg 36%
    22:00 +21°C° 0 mm 1 mps 686 mmHg 37%
    23:00 +20°C° 0 mm 1 mps 686 mmHg 38%

    Day after tomorrow, 22 July, Monday

    Time Temperature Precipitation Wind Pressure Humidity
    00:00 +18°C° 0 mm 2 mps 686 mmHg 39%
    01:00 +18°C° 0 mm 2 mps 686 mmHg 40%
    02:00 +18°C° 0 mm 2 mps 686 mmHg 40%
    03:00 +18°C° 0 mm 2 mps 685 mmHg 40%
    04:00 +18°C° 0 mm 2 mps 685 mmHg 39%
    05:00 +19°C° 0 mm 2 mps 686 mmHg 40%
    06:00 +20°C° 0 mm 2 mps 686 mmHg 41%
    07:00 +21°C° 0 mm 1 mps 686 mmHg 41%
    08:00 +23°C° 0 mm 2 mps 686 mmHg 40%
    09:00 +24°C° 0 mm 2 mps 687 mmHg 38%
    10:00 +25°C° 0 mm 2 mps 687 mmHg 36%
    11:00 +27°C° 0 mm 2 mps 687 mmHg 33%
    12:00 +29°C° 0 mm 1 mps 687 mmHg 30%
    13:00 +31°C° 0 mm 1 mps 687 mmHg 27%
    14:00 +32°C° 0 mm 2 mps 687 mmHg 27%
    15:00 +34°C° 0 mm 2 mps 687 mmHg 26%
    16:00 +34°C° 0 mm 2 mps 686 mmHg 25%
    17:00 +31°C° 0.1 mm 2 mps 686 mmHg 32%
    18:00 +28°C° 0.1 mm 2 mps 686 mmHg 39%
    19:00 +26°C° 0.1 mm 2 mps 685 mmHg 46%
    20:00 +24°C° 0.2 mm 1 mps 685 mmHg 50%
    21:00 +23°C° 0.2 mm 1 mps 685 mmHg 55%
    22:00 +21°C° 0.2 mm 1 mps 685 mmHg 59%
    23:00 +21°C° 0 mm 1 mps 686 mmHg 60%

    23 July, Tuesday

    Time Temperature Precipitation Wind Pressure Humidity
    00:00 +20°C° 0 mm 1 mps 686 mmHg 61%
    01:00 +20°C° 0 mm 1 mps 686 mmHg 62%
    02:00 +19°C° 0 mm 1 mps 686 mmHg 65%
    03:00 +19°C° 0 mm 1 mps 686 mmHg 67%
    04:00 +18°C° 0 mm 1 mps 686 mmHg 70%
    05:00 +20°C° 0.1 mm 1 mps 687 mmHg 67%
    06:00 +19°C° 0.1 mm 0 mps 687 mmHg 63%
    07:00 +21°C° 0.1 mm 0 mps 687 mmHg 60%
    08:00 +23°C° 0 mm 0 mps 688 mmHg 53%
    09:00 +25°C° 0 mm 0 mps 688 mmHg 46%
    10:00 +29°C° 0 mm 1 mps 688 mmHg 39%
    11:00 +31°C° 0 mm 1 mps 688 mmHg 35%
    12:00 +32°C° 0 mm 1 mps 688 mmHg 32%
    13:00 +34°C° 0 mm 1 mps 687 mmHg 29%
    14:00 +35°C° 0 mm 2 mps 687 mmHg 28%
    15:00 +35°C° 0 mm 2 mps 686 mmHg 27%
    16:00 +35°C° 0 mm 3 mps 686 mmHg 26%
    17:00 +32°C° 0 mm 2 mps 685 mmHg 30%
    18:00 +30°C° 0 mm 2 mps 685 mmHg 35%
    19:00 +28°C° 0 mm 2 mps 684 mmHg 39%
    20:00 +26°C° 0.1 mm 2 mps 684 mmHg 43%
    21:00 +24°C° 0.1 mm 1 mps 685 mmHg 48%
    22:00 +23°C° 0.1 mm 1 mps 685 mmHg 52%
    23:00 +21°C° 0.1 mm 2 mps 685 mmHg 54%

    24 July, Wednesday

    Time Temperature Precipitation Wind Pressure Humidity
    00:00 +20°C° 0.1 mm 2 mps 685 mmHg 55%
    01:00 +19°C° 0.1 mm 3 mps 685 mmHg 57%
    02:00 +18°C° 0.1 mm 3 mps 686 mmHg 56%
    03:00 +17°C° 0.1 mm 4 mps 686 mmHg 55%
    04:00 +15°C° 0.1 mm 4 mps 686 mmHg 53%
    05:00 +16°C° 0 mm 5 mps 687 mmHg 50%
    06:00 +17°C° 0 mm 5 mps 688 mmHg 47%
    07:00 +19°C° 0 mm 6 mps 689 mmHg 43%
    08:00 +20°C° 0 mm 6 mps 689 mmHg 38%
    09:00 +21°C° 0 mm 6 mps 689 mmHg 33%
    10:00 +22°C° 0 mm 6 mps 690 mmHg 28%
    11:00 +23°C° 0 mm 7 mps 689 mmHg 25%
    12:00 +23°C° 0 mm 7 mps 689 mmHg 23%
    13:00 +24°C° 0 mm 7 mps 689 mmHg 21%
    14:00 +24°C° 0 mm 7 mps 689 mmHg 21%
    15:00 +24°C° 0 mm 6 mps 689 mmHg 21%
    16:00 +24°C° 0 mm 6 mps 688 mmHg 21%
    17:00 +22°C° 0 mm 5 mps 688 mmHg 25%
    18:00 +21°C° 0 mm 3 mps 688 mmHg 29%
    19:00 +19°C° 0 mm 2 mps 688 mmHg 32%
    20:00 +19°C° 0 mm 1 mps 688 mmHg 33%
    21:00 +16°C° 0 mm 1 mps 688 mmHg 34%
    22:00 +15°C° 0 mm 1 mps 688 mmHg 36%
    23:00 +14°C° 0 mm 1 mps 688 mmHg 37%

    25 July, Thursday

    Time Temperature Precipitation Wind Pressure Humidity
    00:00 +14°C° 0 mm 1 mps 687 mmHg 39%
    01:00 +13°C° 0 mm 1 mps 687 mmHg 41%
    02:00 +13°C° 0 mm 1 mps 687 mmHg 42%
    03:00 +12°C° 0 mm 1 mps 687 mmHg 44%
    04:00 +12°C° 0 mm 1 mps 687 mmHg 46%
    05:00 +14°C° 0 mm 1 mps 687 mmHg 44%
    06:00 +15°C° 0 mm 1 mps 688 mmHg 41%
    07:00 +18°C° 0 mm 1 mps 688 mmHg 38%
    08:00 +21°C° 0 mm 1 mps 688 mmHg 34%
    09:00 +23°C° 0 mm 1 mps 689 mmHg 31%
    10:00 +25°C° 0 mm 1 mps 689 mmHg 27%
    11:00 +26°C° 0 mm 1 mps 689 mmHg 24%
    12:00 +27°C° 0 mm 1 mps 688 mmHg 21%
    13:00 +29°C° 0 mm 2 mps 688 mmHg 18%
    14:00 +29°C° 0 mm 2 mps 688 mmHg 18%
    15:00 +29°C° 0 mm 2 mps 688 mmHg 17%
    16:00 +29°C° 0 mm 2 mps 687 mmHg 16%
    17:00 +27°C° 0 mm 2 mps 687 mmHg 20%
    18:00 +25°C° 0 mm 2 mps 687 mmHg 24%
    19:00 +23°C° 0 mm 1 mps 686 mmHg 28%
    20:00 +21°C° 0 mm 1 mps 686 mmHg 29%
    21:00 +20°C° 0 mm 1 mps 686 mmHg 30%
    22:00 +16°C° 0 mm 0 mps 686 mmHg 30%
    23:00 +18°C° 0 mm 1 mps 686 mmHg 32%
    Show more